Location: Rio Negrinho
(26.2394°S, 49.4999°W)
Time: 19:44:49
(UTC+00:00)

Envisat - Pass Details

Date: 02 August 2021
Orbit: 764 x 766 km, 98.2° (Epoch: 17 September)

Event Time Altitude Azimuth Distance (km) Brightness Sun altitude
Rises 07:45:50 0° 18° (NNE) 3,213 6.5 -29.4°
Reaches altitude 10° 07:48:07 10° 20° (NNE) 2,295 5.7 -28.8°
Maximum altitude 07:53:10 73° 104° (ESE) 804 3.1 -27.7°
Enters shadow 07:54:03 59° 163° (SSE) 888 3.2 -27.5°
